This is the latest recevied weather packets stored in our database for station/object KQ4HEI. If no packets are shown the sender has not sent any weather packets the latest 10 day(s).
| Time | Temp. | Humidity | Pressure | Rain* | Wind** | Luminosity | Snow |
|---|---|---|---|---|---|---|---|
| 1777601492 | 20° C | 86% | 1010.7 hPa | 0 mm | - | - | - |
| 1777600892 | 20° C | 85% | 1010.7 hPa | 0 mm | - | - | - |
| 1777600291 | 20.56° C | 83% | 1010.6 hPa | 0 mm | - | - | - |
| 1777599692 | 20.56° C | 83% | 1010.5 hPa | 0 mm | - | - | - |
| 1777599091 | 21.11° C | 82% | 1010.4 hPa | 0 mm | - | - | - |
| 1777598492 | 21.11° C | 81% | 1010.1 hPa | 0 mm | - | - | - |
| 1777597891 | 21.67° C | 80% | 1010.1 hPa | 0 mm | - | - | - |
| 1777597291 | 21.67° C | 79% | 1009.9 hPa | 0 mm | - | - | - |
| 1777596692 | 22.22° C | 77% | 1009.9 hPa | 0 mm | - | - | - |
| 1777596092 | 22.22° C | 77% | 1009.6 hPa | 0 mm | - | - | - |
| 1777595492 | 23.33° C | 74% | 1009.5 hPa | 0 mm | - | - | - |
| 1777594892 | 23.89° C | 71% | 1009.3 hPa | 0 mm | - | - | - |
| 1777594291 | 24.44° C | 69% | 1009.2 hPa | 0 mm | - | - | - |
| 1777593691 | 25° C | 69% | 1009.1 hPa | 0 mm | - | - | - |
| 1777593091 | 25.56° C | 66% | 1009 hPa | 0 mm | - | - | - |
| 1777592491 | 26.11° C | 64% | 1008.6 hPa | 0 mm | - | - | - |
| 1777591891 | 26.67° C | 61% | 1008.4 hPa | 0 mm | - | - | - |
| 1777591291 | 26.67° C | 60% | 1008.5 hPa | 0 mm | - | - | - |
| 1777590691 | 27.22° C | 59% | 1008.3 hPa | 0 mm | - | - | - |
| 1777590091 | 27.22° C | 59% | 1008.4 hPa | 0 mm | - | - | - |
| 1777589491 | 27.22° C | 59% | 1008.5 hPa | 0 mm | - | - | - |
| 1777588891 | 27.22° C | 58% | 1008.7 hPa | 0 mm | - | - | - |
| 1777588291 | 27.78° C | 58% | 1009 hPa | 0 mm | - | - | - |
| 1777587691 | 27.78° C | 57% | 1008.9 hPa | 0 mm | - | - | - |
| 1777587091 | 27.78° C | 56% | 1008.7 hPa | 0 mm | - | - | - |
* Rain latest hour (hover to see other rain measurements)
** Current wind speed in m/s (hover to see current wind gust speed)